Home   Weather   Liestal   Past weeks

Flag for Switzerland Past Weather in Liestal, Basel-Land, Switzerland — Yesterday and Last 2 Weeks

Now
46 °F

Light rain. Partly cloudy.


Feels Like: 45 °F
Forecast: 41 / 51 °F
Wind: 3 mph from North

Location: Bale-Mulhouse

Current Time: Feb 20, 2017 at 9:13:30 pm

Latest Report: Feb 20, 2017 at 8:30 pm


Visibility: N/A

Pressure: 30.21 "Hg

Humidity: 82%

Dew Point: 41 °F

Location of LiestalLocation

Past Weather in Liestal — Graph

°F

Liestal Temperature Yesterday

Maximum temperature yesterday: 54 °F (at 4:30 pm)
Minimum temperature yesterday: 27 °F (at 3:30 am)
Average temperature yesterday: 40 °F

High & Low Weather Summary for the Past Weeks

 TemperatureHumidityPressure
High63 °F (Feb 15, 4:00 pm)100% (Feb 5, 9:00 pm)30.57 "Hg (Feb 5, 9:00 pm)
Low27 °F (Feb 19, 3:30 am)42% (Feb 15, 4:30 pm)29.62 "Hg (Feb 5, 8:00 pm)
Average40 °F84%30.22 "Hg
* Reported Feb 5 8:00 pm — Feb 20 8:00 pm, Liestal, Weather by CustomWeather, © 2017

Note: Actual official high and low records may vary slightly from our data, if they occured in-between our weather recording intervals... More about our weather records

Advertising

Liestal Weather History for the Previous 24 Hours

Scroll right to see more
 ConditionsComfort  
Time TempWeatherWind HumidityBarometerVisibility
8:00 pm
Mon, Feb 20
48 °FLight rain. Partly cloudy.2 mph71%30.21 "HgN/A
7:36 pm46 °FLight rain. Passing clouds.2 mph76%30.21 "HgN/A
7:00 pm48 °FPassing clouds.No wind71%30.21 "HgN/A
6:30 pm48 °FPassing clouds.5 mph71%30.21 "HgN/A
6:00 pm50 °FPassing clouds.7 mph67%30.21 "HgN/A
5:30 pm50 °FPartly sunny.3 mph67%30.21 "HgN/A
5:00 pm50 °FPartly sunny.6 mph67%30.21 "HgN/A
4:30 pm50 °FPartly sunny.7 mph67%30.21 "HgN/A
4:00 pm50 °FPartly sunny.7 mph67%30.21 "HgN/A
3:30 pm50 °FBroken clouds.10 mph67%30.21 "HgN/A
3:00 pm52 °FPartly sunny.14 mph62%30.21 "HgN/A
2:30 pm50 °FPartly sunny.12 mph71%30.24 "HgN/A
2:00 pm50 °FBroken clouds.10 mph71%30.24 "HgN/A
1:30 pm50 °FPartly sunny.9 mph71%30.24 "HgN/A
1:00 pm48 °FPartly sunny.9 mph71%30.27 "HgN/A
12:30 pm48 °FPartly sunny.12 mph71%30.27 "HgN/A
12:00 pm48 °FPartly sunny.9 mph71%30.30 "HgN/A
11:30 am48 °FBroken clouds.1 mph66%30.30 "HgN/A
11:00 am46 °FPartly sunny.2 mph71%30.30 "HgN/A
10:30 am46 °FLight rain. Broken clouds.No wind71%30.30 "HgN/A
10:00 am45 °FLight rain. Broken clouds.1 mph76%30.27 "HgN/A
9:30 am45 °FBroken clouds.2 mph76%30.27 "HgN/A
9:00 am43 °FPartly sunny.3 mph81%30.27 "HgN/A
8:30 am43 °FPartly sunny.6 mph76%30.27 "HgN/A
8:00 am43 °FPartly sunny.6 mph81%30.27 "HgN/A
7:30 am43 °FPartly sunny.10 mph81%30.27 "HgN/A
7:00 am43 °FPassing clouds.5 mph81%30.27 "HgN/A
6:30 am43 °FPassing clouds.10 mph76%30.24 "HgN/A
6:00 am43 °FPassing clouds.9 mph76%30.27 "HgN/A
5:30 am41 °FPartly cloudy.5 mph81%30.24 "HgN/A
5:00 am39 °FPassing clouds.1 mph81%30.24 "HgN/A
4:30 am39 °FPassing clouds.3 mph81%30.27 "HgN/A
4:00 am39 °FPassing clouds.7 mph81%30.24 "HgN/A
3:30 am41 °FPassing clouds.8 mph76%30.24 "HgN/A
3:00 am43 °FPassing clouds.9 mph71%30.27 "HgN/A
2:30 am43 °FMostly cloudy.8 mph71%30.27 "HgN/A
2:00 am43 °FOvercast.6 mph76%30.27 "HgN/A
1:30 am45 °FOvercast.8 mph71%30.27 "HgN/A
1:00 am45 °FClear.6 mph66%30.27 "Hg10 mi
12:30 am45 °FPassing clouds.6 mph66%30.27 "HgN/A
12:00 am45 °FPassing clouds.7 mph66%30.27 "HgN/A
11:30 pm
Sun, Feb 19
43 °FClear.3 mph71%30.27 "Hg10 mi
11:00 pm43 °FClear.2 mph66%30.27 "Hg10 mi
10:30 pm43 °FClear.5 mph71%30.27 "Hg10 mi
10:00 pm43 °FClear.1 mph66%30.27 "Hg10 mi
9:30 pm43 °FClear.6 mph71%30.24 "Hg10 mi
9:00 pm45 °FClear.7 mph66%30.24 "Hg10 mi
Weather by CustomWeather, © 2017

See weather overviewHow to use our weather pages